SCP
0 0 0 0 0 0 0 1 1 1 1 0 1 1 0 0 0 0 0 0 0 0
0 0 0 0 0 0 1 1 1 1 1 1 1 1 0 0 0 0 0 0 0 0
0 0 -0 -0 0 0 0 1 1 1 1 1 1 1 1 0 0 0 0 0 0 0
0 0 0 0 0 0 1 1 1 1 1 1 1 1 1 1 0 0 0 0 0 0
0 0 0 0 0 0 0 0 1 1 1 1 1 1 0 1 1 0 0 0 0 0
0 0 0 0 0 0 0 0 0 1 1 1 1 1 1 0 0 0 0 0 0 0
0 0 0 0 0 0 0 0 0 0 1 1 1 1 1 1 0 0 0 0 0 0
0 0 0 0 0 0 0 0 0 0 0 1 1 1 1 0 0 0 0 0 0 0
0 0 0 0 0 0 0 0 0 0 0 1 1 0 0 0 0 0 0 0 0 0
0 0 0 0 0 0 0 0 0 0 0 0 0 0 0 0 0 0 0 0 0 0
0 0 0 0 0 0 0 0 0 0 0 0 0 0 0 0 0 0 0 0 0 0
0 0 0 0 0 0 0 0 0 0 0 0 0 0 0 0 0 0 0 0 0 0
0 0 0 0 0 0 0 0 0 0 0 0 0 0 0 0 0 0 0 0 0 0
-0 0 0 0 0 0 0 0 0 0 0 0 0 0 0 0 0 0 0 0 0 0
Wind_Speed_500mb
34 35 37 39 40 42 48 49 50 54 55 51 56 58 57 63 75 83 60 63 70 59
40 46 49 49 53 53 48 50 50 56 59 54 52 55 56 65 66 75 76 64 69 66
54 57 55 55 52 54 57 54 50 56 59 61 60 57 61 70 74 84 79 74 74 66
53 53 61 62 51 49 49 51 56 57 66 70 68 62 69 73 86 93 91 85 75 71
48 59 62 54 51 51 55 55 58 60 67 72 74 69 68 74 81 95 96 87 77 71
58 59 55 56 56 60 61 58 58 63 67 67 76 75 74 73 88 95 93 85 80 79
61 56 53 53 60 67 65 65 62 64 70 69 77 77 73 73 90 94 96 91 84 79
64 61 58 62 66 67 72 68 62 59 63 67 76 73 72 72 99 91 105 89 85 72
70 67 65 69 77 72 68 72 64 61 60 69 73 73 75 79 104 97 85 88 77 67
72 70 68 75 83 75 67 68 61 62 59 62 72 63 73 85 102 95 95 95 80 68
64 71 76 84 80 74 67 66 58 63 61 63 72 67 88 88 88 89 101 85 87 68
65 79 90 90 80 70 65 63 60 59 64 64 73 71 94 98 87 74 81 86 78 63
82 93 89 79 70 66 63 63 59 56 58 57 67 76 94 107 99 88 89 80 69 68
97 91 79 72 61 63 63 60 57 50 56 61 25 71 111 91 109 96 100 77 80 77
Wind_Direction_500mb
280 284 283 282 279 274 275 279 274 265 267 272 264 256 252 251 252 230 236 240 241 245
291 293 293 289 282 278 276 279 276 265 261 264 263 256 253 247 228 220 226 242 242 247
300 301 301 294 282 272 273 274 276 272 265 262 264 260 254 243 233 226 222 232 240 241
298 296 297 297 278 272 269 269 270 267 268 262 263 261 259 248 234 232 232 227 231 239
305 302 299 294 275 267 268 270 270 270 266 263 261 262 257 246 240 235 231 224 224 234
303 298 300 292 283 272 273 274 271 270 269 264 260 261 261 246 239 238 225 222 219 224
296 295 299 303 296 279 273 279 276 272 269 262 260 261 255 246 235 237 226 225 219 220
292 290 295 298 306 291 274 274 280 281 271 258 253 262 248 243 235 239 223 222 216 218
281 285 290 297 304 302 278 270 274 281 281 260 254 259 242 241 230 232 211 206 207 212
272 276 285 296 304 297 286 271 269 274 279 258 252 253 239 234 225 226 217 210 203 204
267 278 287 297 299 292 284 272 264 270 273 267 249 248 238 235 224 214 205 198 196 205
276 285 292 293 293 285 278 266 259 264 271 260 246 242 229 221 204 203 194 194 195 216
282 290 290 286 286 278 270 259 263 262 262 255 252 242 230 214 204 205 197 194 207 208
287 285 281 279 278 270 264 254 264 255 245 242 267 235 207 213 204 203 193 200 201 197
Wind_Speed_850mb
34 35 37 39 40 42 48 49 50 54 55 51 56 58 57 63 75 83 60 63 70 59
40 46 49 49 53 53 48 50 50 56 59 54 52 55 56 65 66 75 76 64 69 66
54 57 55 55 52 54 57 54 50 56 59 61 60 57 61 70 74 84 79 74 74 66
53 53 61 62 51 49 49 51 56 57 66 70 68 62 69 73 86 93 91 85 75 71
48 59 62 54 51 51 55 55 58 60 67 72 74 69 68 74 81 95 96 87 77 71
58 59 55 56 56 60 61 58 58 63 67 67 76 75 74 73 88 95 93 85 80 79
61 56 53 53 60 67 65 65 62 64 70 69 77 77 73 73 90 94 96 91 84 79
64 61 58 62 66 67 72 68 62 59 63 67 76 73 72 72 99 91 105 89 85 72
70 67 65 69 77 72 68 72 64 61 60 69 73 73 75 79 104 97 85 88 77 67
72 70 68 75 83 75 67 68 61 62 59 62 72 63 73 85 102 95 95 95 80 68
64 71 76 84 80 74 67 66 58 63 61 63 72 67 88 88 88 89 101 85 87 68
65 79 90 90 80 70 65 63 60 59 64 64 73 71 94 98 87 74 81 86 78 63
82 93 89 79 70 66 63 63 59 56 58 57 67 76 94 107 99 88 89 80 69 68
97 91 79 72 61 63 63 60 57 50 56 61 25 71 111 91 109 96 100 77 80 77
Wind_Direction_850mb
280 284 283 282 279 274 275 279 274 265 267 272 264 256 252 251 252 230 236 240 241 245
291 293 293 289 282 278 276 279 276 265 261 264 263 256 253 247 228 220 226 242 242 247
300 301 301 294 282 272 273 274 276 272 265 262 264 260 254 243 233 226 222 232 240 241
298 296 297 297 278 272 269 269 270 267 268 262 263 261 259 248 234 232 232 227 231 239
305 302 299 294 275 267 268 270 270 270 266 263 261 262 257 246 240 235 231 224 224 234
303 298 300 292 283 272 273 274 271 270 269 264 260 261 261 246 239 238 225 222 219 224
296 295 299 303 296 279 273 279 276 272 269 262 260 261 255 246 235 237 226 225 219 220
292 290 295 298 306 291 274 274 280 281 271 258 253 262 248 243 235 239 223 222 216 218
281 285 290 297 304 302 278 270 274 281 281 260 254 259 242 241 230 232 211 206 207 212
272 276 285 296 304 297 286 271 269 274 279 258 252 253 239 234 225 226 217 210 203 204
267 278 287 297 299 292 284 272 264 270 273 267 249 248 238 235 224 214 205 198 196 205
276 285 292 293 293 285 278 266 259 264 271 260 246 242 229 221 204 203 194 194 195 216
282 290 290 286 286 278 270 259 263 262 262 255 252 242 230 214 204 205 197 194 207 208
287 285 281 279 278 270 264 254 264 255 245 242 267 235 207 213 204 203 193 200 201 197